Ambrogiana, Italy

4:16 PM CEST on May 23, 2017 (GMT +0200)
Ambrogiana

Weather History for 16170 - May, 2013

Change the Weather History Date:

Thursday, May 23, 2013

  Actual Average Record
Temperature  
Mean Temperature 64 °F -  
Max Temperature 73 °F 79 °F - ()
Min Temperature 55 °F 57 °F - ()
Degree Days  
Heating Degree Days 1    
Growing Degree Days 14 (Base 50)    
Moisture  
Dew Point 52 °F    
Average Humidity 68    
Maximum Humidity 94    
Minimum Humidity 38    
Precipitation  
Precipitation 0.00 in 0.08 in - ()
Sea Level Pressure  
Sea Level Pressure 29.57 in    
Wind  
Wind Speed 5 mph ()    
Max Wind Speed 12 mph    
Max Gust Speed -    
Visibility 6.2 miles    
Events Rain    
T = Trace of Precipitation, MM = Missing Value Source: Averaged Metar Reports

Daily Weather History Graph

Daily Weather History Graph

Search for Another Location

Airport or City:

Trip Planner

Search our weather history database for the weather conditions in past years. The results will help you decide how hot, cold, wet, or windy it might be!

Date:

Astronomy

May. 23, 2013 Rise Set
Actual Time 5:42 AM CEST 8:42 PM CEST
Civil Twilight 5:07 AM CEST 9:16 PM CEST
Nautical Twilight 4:24 AM CEST 10:00 PM CEST
Astronomical Twilight 3:32 AM CEST 10:52 PM CEST
Moon 6:52 PM CEST 4:19 AM CEST
Length of Visible Light 16h 08m
Length of Day
15h 00m
Waxing Gibbous, 95% of the Moon is Illuminated
May 23
Waxing Gibbous
May 25
Full
May 31
Last Quarter
Jun 8
New
Jun 16
First Quarter

Hourly Weather History & Observations

Time (CEST) Temp. Dew Point Humidity Pressure Visibility Wind Dir Wind Speed Gust Speed Precip Events Conditions
12:20 AM 64.4 °F 39.2 °F 40% 29.56 in - NE 4.6 mph - N/A   Clear
12:50 AM 60.8 °F 44.6 °F 55% 29.56 in - East 8.1 mph - N/A   Clear
1:20 AM 62.6 °F 42.8 °F 48% 29.56 in 6.2 mi Variable 4.6 mph - N/A   Light Drizzle
1:50 AM 62.6 °F 44.6 °F 52% 29.56 in 6.2 mi Variable 4.6 mph - N/A   Light Drizzle
2:20 AM 60.8 °F 46.4 °F 59% 29.56 in 6.2 mi NE 11.5 mph - N/A   Light Drizzle
2:50 AM 57.2 °F 48.2 °F 72% 29.56 in 6.2 mi Variable 3.5 mph - N/A Rain Light Rain
3:20 AM 57.2 °F 50.0 °F 77% 29.56 in 6.2 mi Variable 4.6 mph - N/A Rain Light Rain
3:50 AM 55.4 °F 50.0 °F 82% 29.56 in 6.2 mi Variable 3.5 mph - N/A Rain Light Rain
4:20 AM 55.4 °F 51.8 °F 88% 29.56 in 6.2 mi WSW 3.5 mph - N/A Rain Light Rain
4:50 AM 55.4 °F 51.8 °F 88% 29.56 in 6.2 mi South 3.5 mph - N/A Rain Light Rain
5:20 AM 55.4 °F 51.8 °F 88% 29.53 in 6.2 mi SSW 5.8 mph - N/A Rain Light Rain
5:50 AM 57.2 °F 51.8 °F 82% 29.53 in 6.2 mi SW 4.6 mph - N/A   Light Drizzle
6:20 AM 55.4 °F 51.8 °F 88% 29.53 in 5.6 mi SE 4.6 mph - N/A   Light Drizzle
6:50 AM 55.4 °F 51.8 °F 88% 29.56 in 5.0 mi Variable 2.3 mph - N/A   Light Drizzle
7:20 AM 55.4 °F 53.6 °F 94% 29.56 in 6.2 mi Variable 2.3 mph - N/A   Light Drizzle
7:50 AM 57.2 °F 53.6 °F 88% 29.56 in 6.2 mi West 4.6 mph - N/A   Light Drizzle
8:20 AM 57.2 °F 55.4 °F 94% 29.56 in 6.2 mi Variable 2.3 mph - N/A   Mostly Cloudy
8:50 AM 59.0 °F 55.4 °F 88% 29.56 in 6.2 mi SSE 3.5 mph - N/A   Mostly Cloudy
9:20 AM 59.0 °F 55.4 °F 88% 29.59 in 6.2 mi West 6.9 mph - N/A   Light Drizzle
9:50 AM 62.6 °F 57.2 °F 82% 29.56 in 6.2 mi West 8.1 mph - N/A   Mostly Cloudy
10:20 AM 64.4 °F 55.4 °F 73% 29.56 in 6.2 mi WNW 6.9 mph - N/A   Scattered Clouds
10:50 AM 68.0 °F 53.6 °F 60% 29.56 in 6.2 mi NNE 5.8 mph - N/A   Scattered Clouds
11:20 AM 66.2 °F 53.6 °F 64% 29.59 in 6.2 mi North 6.9 mph - N/A   Scattered Clouds
11:50 AM 66.2 °F 51.8 °F 60% 29.59 in 6.2 mi North 6.9 mph - N/A   Scattered Clouds
12:20 PM 68.0 °F 53.6 °F 60% 29.59 in 6.2 mi NW 6.9 mph - N/A   Scattered Clouds
12:50 PM 68.0 °F 51.8 °F 56% 29.56 in 6.2 mi NNW 4.6 mph - N/A   Scattered Clouds
1:20 PM 71.6 °F 51.8 °F 50% 29.56 in 6.2 mi Variable 5.8 mph - N/A   Scattered Clouds
1:50 PM 71.6 °F 50.0 °F 46% 29.56 in 6.2 mi NE 8.1 mph - N/A   Scattered Clouds
2:20 PM 71.6 °F 48.2 °F 43% 29.56 in 6.2 mi Variable 4.6 mph - N/A   Scattered Clouds
2:50 PM 73.4 °F 50.0 °F 44% 29.56 in 6.2 mi NW 6.9 mph - N/A   Scattered Clouds
3:20 PM 73.4 °F 50.0 °F 44% 29.56 in 6.2 mi East 8.1 mph - N/A   Scattered Clouds
3:50 PM 71.6 °F 44.6 °F 38% 29.56 in 6.2 mi North 3.5 mph - N/A   Scattered Clouds
4:20 PM 64.4 °F 53.6 °F 68% 29.56 in 6.2 mi NW 9.2 mph - N/A   Mostly Cloudy
4:50 PM 69.8 °F 51.8 °F 53% 29.56 in 6.2 mi West 4.6 mph - N/A   Scattered Clouds
5:20 PM 73.4 °F 50.0 °F 44% 29.56 in 6.2 mi Variable 3.5 mph - N/A   Scattered Clouds
5:50 PM 68.0 °F 53.6 °F 60% 29.56 in 6.2 mi WSW 9.2 mph - N/A   Scattered Clouds
6:20 PM 66.2 °F 55.4 °F 68% 29.56 in 6.2 mi NNW 6.9 mph - N/A   Scattered Clouds
6:50 PM 66.2 °F 55.4 °F 68% 29.56 in 6.2 mi North 6.9 mph - N/A   Scattered Clouds
7:20 PM 68.0 °F 55.4 °F 64% 29.56 in 6.2 mi Variable 3.5 mph - N/A   Scattered Clouds
7:50 PM 66.2 °F 55.4 °F 68% 29.56 in 6.2 mi West 4.6 mph - N/A   Scattered Clouds
8:20 PM 66.2 °F 55.4 °F 68% 29.56 in 6.2 mi Variable 2.3 mph - N/A   Partly Cloudy
8:50 PM 66.2 °F 53.6 °F 64% 29.59 in - West 4.6 mph - N/A   Clear
9:20 PM 64.4 °F 53.6 °F 68% 29.59 in - WSW 8.1 mph - N/A   Clear
9:50 PM 64.4 °F 53.6 °F 68% 29.62 in - WSW 5.8 mph - N/A   Clear
10:20 PM 62.6 °F 51.8 °F 68% 29.62 in - South 3.5 mph - N/A   Clear
10:50 PM 57.2 °F 50.0 °F 77% 29.62 in - Variable 2.3 mph - N/A   Clear
11:20 PM 59.0 °F 53.6 °F 82% 29.62 in - Variable 2.3 mph - N/A   Clear
11:50 PM 59.0 °F 53.6 °F 82% 29.62 in 6.2 mi Variable 3.5 mph - N/A   Partly Cloudy